This is the latest recevied weather packets stored in our database for station/object IU3NMQ-10. If no packets are shown the sender has not sent any weather packets the latest 10 day(s).
| Time | Temp. | Humidity | Pressure | Rain* | Wind** | Luminosity | Snow |
|---|---|---|---|---|---|---|---|
| 1787754198 | 32.78° C | 54% | 1012.6 hPa | - | - | - | - |
| 1787753811 | 32.78° C | 54% | 1012.6 hPa | - | - | - | - |
| 1787752910 | 32.78° C | 55% | 1012.6 hPa | - | - | - | - |
| 1787752009 | 32.22° C | 55% | 1012.8 hPa | - | - | - | - |
| 1787751109 | 32.78° C | 53% | 1013 hPa | - | - | - | - |
| 1787750345 | 33.33° C | 52% | 1013.1 hPa | - | - | - | - |
| 1787750209 | 33.33° C | 52% | 1013.1 hPa | - | - | - | - |
| 1787749309 | 33.33° C | 53% | 1013.1 hPa | - | - | - | - |
| 1787748409 | 33.33° C | 52% | 1013.1 hPa | - | - | - | - |
| 1787747509 | 33.33° C | 53% | 1013.3 hPa | - | - | - | - |
| 1787746682 | 32.22° C | 54% | 1013.4 hPa | - | - | - | - |
| 1787746609 | 32.22° C | 54% | 1013.4 hPa | - | - | - | - |
| 1787745708 | 33.33° C | 52% | 1013.4 hPa | - | - | - | - |
| 1787744728 | 33.33° C | 52% | 1013.3 hPa | - | - | - | - |
| 1787743863 | 33.33° C | 52% | 1013.2 hPa | - | - | - | - |
| 1787743828 | 33.33° C | 52% | 1013.2 hPa | - | - | - | - |
| 1787742928 | 33.89° C | 51% | 1013.3 hPa | - | - | - | - |
| 1787742076 | 33.33° C | 52% | 1013.5 hPa | - | - | - | - |
| 1787742028 | 33.33° C | 52% | 1013.5 hPa | - | - | - | - |
| 1787741128 | 33.33° C | 53% | 1013.6 hPa | - | - | - | - |
| 1787740228 | 32.78° C | 52% | 1013.7 hPa | - | - | - | - |
| 1787739327 | 32.78° C | 52% | 1013.9 hPa | - | - | - | - |
| 1787738427 | 32.22° C | 53% | 1014 hPa | - | - | - | - |
| 1787737527 | 31.67° C | 54% | 1014.2 hPa | - | - | - | - |
| 1787736663 | 31.11° C | 55% | 1014.1 hPa | - | - | - | - |
* Rain since midnight (hover to see other rain measurements)
** Current wind speed in m/s (hover to see current wind gust speed)